Time,TemperatureF,DewpointF,PressureIn,WindDirection,WindDirectionDegrees,WindSpeedMPH,WindSpeedGustMPH,Humidity,HourlyPrecipIn,Conditions,Clouds,dailyrainin,SoftwareType,DateUTC
2013-02-14 00:00:00,32.8,32.0,29.76,ENE,69,0.0,0.0,96,0.00,,,0.05,weatherlink.com 1.10,2013-02-14 05:00:00,
2013-02-14 00:15:00,32.7,32.0,29.77,NNW,344,1.0,2.0,97,0.00,,,0.00,weatherlink.com 1.10,2013-02-14 05:15:00,
2013-02-14 00:30:00,33.4,33.0,29.77,NNW,327,3.0,5.0,97,0.00,,,0.00,weatherlink.com 1.10,2013-02-14 05:30:00,
2013-02-14 00:45:00,34.2,33.0,29.78,NW,307,0.0,2.0,96,0.00,,,0.00,weatherlink.com 1.10,2013-02-14 05:45:00,
2013-02-14 01:00:00,33.9,33.0,29.78,NW,307,0.0,0.0,96,0.00,,,0.00,weatherlink.com 1.10,2013-02-14 06:00:00,
2013-02-14 01:15:00,33.9,33.0,29.78,NW,312,1.0,4.0,96,0.00,,,0.00,weatherlink.com 1.10,2013-02-14 06:15:00,
2013-02-14 01:30:00,34.7,33.0,29.79,NW,310,3.0,5.0,94,0.00,,,0.00,weatherlink.com 1.10,2013-02-14 06:30:00,
2013-02-14 01:45:00,35.5,33.0,29.79,WNW,294,1.0,6.0,92,0.00,,,0.00,weatherlink.com 1.10,2013-02-14 06:45:00,
2013-02-14 02:00:00,36.1,34.0,29.80,WNW,303,0.0,6.0,90,0.00,,,0.00,weatherlink.com 1.10,2013-02-14 07:00:00,
2013-02-14 02:15:00,36.1,34.0,29.81,NW,323,1.0,4.0,90,0.00,,,0.00,weatherlink.com 1.10,2013-02-14 07:15:00,
2013-02-14 02:30:00,35.9,33.0,29.81,NNW,332,0.0,4.0,90,0.00,,,0.00,weatherlink.com 1.10,2013-02-14 07:30:00,
2013-02-14 02:45:00,34.8,33.0,29.81,ESE,107,0.0,2.0,92,0.00,,,0.00,weatherlink.com 1.10,2013-02-14 07:45:00,
2013-02-14 03:00:00,34.2,33.0,29.82,SSE,155,2.0,4.0,94,0.00,,,0.00,weatherlink.com 1.10,2013-02-14 08:00:00,
2013-02-14 03:15:00,34.5,32.0,29.83,NNW,343,0.0,6.0,91,0.00,,,0.00,weatherlink.com 1.10,2013-02-14 08:15:00,
2013-02-14 03:30:00,34.4,33.0,29.84,South,179,0.0,2.0,93,0.00,,,0.00,weatherlink.com 1.10,2013-02-14 08:30:00,
2013-02-14 03:45:00,34.1,32.0,29.85,ESE,121,0.0,3.0,93,0.00,,,0.00,weatherlink.com 1.10,2013-02-14 08:45:00,
2013-02-14 04:00:00,33.8,32.0,29.86,West,260,0.0,3.0,93,0.00,,,0.00,weatherlink.com 1.10,2013-02-14 09:00:00,
2013-02-14 04:15:00,34.2,32.0,29.86,NW,306,1.0,4.0,92,0.00,,,0.00,weatherlink.com 1.10,2013-02-14 09:15:00,
2013-02-14 04:31:00,34.9,31.0,29.88,WNW,301,2.0,9.0,84,0.00,,,0.00,weatherlink.com 1.10,2013-02-14 09:31:00,
2013-02-14 04:46:00,35.5,29.0,29.88,NW,317,0.0,8.0,78,0.00,,,0.00,weatherlink.com 1.10,2013-02-14 09:46:00,
2013-02-14 05:01:00,35.0,29.0,29.88,WNW,290,3.0,9.0,78,0.00,,,0.00,weatherlink.com 1.10,2013-02-14 10:01:00,
2013-02-14 05:16:00,35.3,28.0,29.87,NW,317,6.0,11.0,75,0.00,,,0.00,weatherlink.com 1.10,2013-02-14 10:16:00,
2013-02-14 05:31:00,34.8,28.0,29.88,NW,320,2.0,9.0,76,0.00,,,0.00,weatherlink.com 1.10,2013-02-14 10:31:00,
2013-02-14 05:46:00,34.2,28.0,29.89,ESE,113,3.0,3.0,79,0.00,,,0.00,weatherlink.com 1.10,2013-02-14 10:46:00,
2013-02-14 06:01:00,32.9,29.0,29.90,WSW,239,0.0,5.0,85,0.00,,,0.00,weatherlink.com 1.10,2013-02-14 11:01:00,
2013-02-14 06:16:00,31.8,28.0,29.91,West,281,1.0,2.0,86,0.00,,,0.00,weatherlink.com 1.10,2013-02-14 11:16:00,
2013-02-14 06:31:00,31.1,28.0,29.91,NW,307,1.0,2.0,87,0.00,,,0.00,weatherlink.com 1.10,2013-02-14 11:31:00,
2013-02-14 06:46:00,30.2,27.0,29.91,WNW,297,0.0,3.0,88,0.00,,,0.00,weatherlink.com 1.10,2013-02-14 11:46:00,
2013-02-14 07:01:00,29.7,27.0,29.92,NNE,12,1.0,2.0,89,0.00,,,0.00,weatherlink.com 1.10,2013-02-14 12:01:00,
2013-02-14 07:16:00,29.1,27.0,29.93,NNW,335,1.0,2.0,90,0.00,,,0.00,weatherlink.com 1.10,2013-02-14 12:16:00,
2013-02-14 07:31:00,29.4,27.0,29.93,NW,310,3.0,4.0,89,0.00,,,0.00,weatherlink.com 1.10,2013-02-14 12:31:00,
2013-02-14 07:46:00,32.3,28.0,29.93,West,266,0.0,7.0,83,0.00,,,0.00,weatherlink.com 1.10,2013-02-14 12:46:00,
2013-02-14 08:01:00,34.5,29.0,29.94,West,259,0.0,3.0,79,0.00,,,0.00,weatherlink.com 1.10,2013-02-14 13:01:00,
2013-02-14 08:16:00,35.7,28.0,29.94,WNW,287,0.0,3.0,74,0.01,,,0.01,weatherlink.com 1.10,2013-02-14 13:16:00,
2013-02-14 08:31:00,35.7,28.0,29.95,NW,322,0.0,5.0,73,0.02,,,0.02,weatherlink.com 1.10,2013-02-14 13:31:00,
2013-02-14 08:46:00,37.0,28.0,29.95,NW,309,1.0,2.0,71,0.03,,,0.03,weatherlink.com 1.10,2013-02-14 13:46:00,
2013-02-14 09:01:00,37.7,28.0,29.96,West,275,2.0,5.0,68,0.04,,,0.04,weatherlink.com 1.10,2013-02-14 14:01:00,
2013-02-14 09:16:00,39.3,28.0,29.97,WNW,302,0.0,3.0,65,0.05,,,0.06,weatherlink.com 1.10,2013-02-14 14:16:00,
2013-02-14 09:31:00,39.7,27.0,29.97,NW,309,0.0,4.0,62,0.06,,,0.08,weatherlink.com 1.10,2013-02-14 14:31:00,
2013-02-14 09:46:00,40.3,28.0,29.96,NNW,335,0.0,5.0,63,0.07,,,0.10,weatherlink.com 1.10,2013-02-14 14:46:00,
2013-02-14 10:01:00,40.7,29.0,29.96,WSW,241,3.0,5.0,63,0.08,,,0.12,weatherlink.com 1.10,2013-02-14 15:01:00,
2013-02-14 10:16:00,40.9,27.0,29.96,WNW,291,7.0,7.0,59,0.07,,,0.13,weatherlink.com 1.10,2013-02-14 15:16:00,
2013-02-14 10:31:00,41.3,27.0,29.96,WNW,289,2.0,9.0,58,0.06,,,0.14,weatherlink.com 1.10,2013-02-14 15:31:00,
2013-02-14 10:47:00,42.4,29.0,29.96,SSW,204,1.0,5.0,60,0.04,,,0.14,weatherlink.com 1.10,2013-02-14 15:47:00,
2013-02-14 11:02:00,42.2,29.0,29.96,West,268,3.0,9.0,60,0.02,,,0.14,weatherlink.com 1.10,2013-02-14 16:02:00,
2013-02-14 11:17:00,42.3,30.0,29.96,WSW,243,3.0,8.0,62,0.01,,,0.14,weatherlink.com 1.10,2013-02-14 16:17:00,
2013-02-14 11:32:00,43.5,30.0,29.96,WSW,244,3.0,7.0,60,0.00,,,0.14,weatherlink.com 1.10,2013-02-14 16:32:00,
2013-02-14 11:47:00,44.1,30.0,29.96,SSW,213,0.0,10.0,58,0.00,,,0.14,weatherlink.com 1.10,2013-02-14 16:47:00,
2013-02-14 12:02:00,44.2,30.0,29.95,WNW,288,7.0,9.0,57,0.00,,,0.14,weatherlink.com 1.10,2013-02-14 17:02:00,
2013-02-14 12:17:00,45.3,30.0,29.95,WNW,298,1.0,5.0,55,0.00,,,0.14,weatherlink.com 1.10,2013-02-14 17:17:00,
2013-02-14 12:32:00,45.5,30.0,29.95,WNW,295,1.0,10.0,56,0.00,,,0.14,weatherlink.com 1.10,2013-02-14 17:32:00,
2013-02-14 12:47:00,46.5,33.0,29.95,WNW,299,0.0,8.0,59,0.00,,,0.14,weatherlink.com 1.10,2013-02-14 17:47:00,
2013-02-14 13:02:00,47.5,31.0,29.94,WSW,245,4.0,10.0,54,0.00,,,0.14,weatherlink.com 1.10,2013-02-14 18:02:00,
2013-02-14 13:17:00,47.8,30.0,29.93,WSW,257,8.0,13.0,50,0.00,,,0.14,weatherlink.com 1.10,2013-02-14 18:17:00,
2013-02-14 13:32:00,47.5,28.0,29.92,WNW,296,6.0,9.0,48,0.00,,,0.14,weatherlink.com 1.10,2013-02-14 18:32:00,
2013-02-14 13:47:00,48.6,30.0,29.92,NW,316,3.0,9.0,49,0.00,,,0.14,weatherlink.com 1.10,2013-02-14 18:47:00,
2013-02-14 14:02:00,49.5,32.0,29.91,West,272,1.0,10.0,51,0.00,,,0.14,weatherlink.com 1.10,2013-02-14 19:02:00,
2013-02-14 14:17:00,50.1,30.0,29.91,WSW,241,2.0,10.0,47,0.00,,,0.14,weatherlink.com 1.10,2013-02-14 19:17:00,
2013-02-14 14:32:00,48.8,30.0,29.91,West,276,2.0,7.0,48,0.00,,,0.14,weatherlink.com 1.10,2013-02-14 19:32:00,
2013-02-14 14:47:00,48.4,30.0,29.91,SW,233,7.0,14.0,49,0.00,,,0.14,weatherlink.com 1.10,2013-02-14 19:47:00,
2013-02-14 15:02:00,48.1,31.0,29.91,WNW,298,6.0,10.0,52,0.00,,,0.14,weatherlink.com 1.10,2013-02-14 20:02:00,
2013-02-14 15:17:00,48.2,30.0,29.91,WNW,283,1.0,10.0,49,0.00,,,0.14,weatherlink.com 1.10,2013-02-14 20:17:00,
2013-02-14 15:32:00,48.7,29.0,29.91,West,267,5.0,10.0,46,0.00,,,0.14,weatherlink.com 1.10,2013-02-14 20:32:00,
2013-02-14 15:47:00,49.4,28.0,29.91,WNW,286,4.0,10.0,43,0.00,,,0.14,weatherlink.com 1.10,2013-02-14 20:47:00,
2013-02-14 16:02:00,49.3,28.0,29.91,West,277,2.0,10.0,44,0.00,,,0.14,weatherlink.com 1.10,2013-02-14 21:02:00,
2013-02-14 16:17:00,49.6,28.0,29.90,SSE,165,3.0,9.0,44,0.00,,,0.14,weatherlink.com 1.10,2013-02-14 21:17:00,
2013-02-14 16:32:00,49.7,29.0,29.90,SSE,150,0.0,5.0,45,0.00,,,0.14,weatherlink.com 1.10,2013-02-14 21:32:00,
2013-02-14 16:47:00,49.6,29.0,29.90,SSE,165,1.0,4.0,45,0.00,,,0.14,weatherlink.com 1.10,2013-02-14 21:47:00,
2013-02-14 17:02:00,47.7,28.0,29.90,SSE,160,3.0,6.0,46,0.00,,,0.14,weatherlink.com 1.10,2013-02-14 22:02:00,
2013-02-14 17:17:00,46.8,28.0,29.90,SE,127,0.0,3.0,49,0.00,,,0.14,weatherlink.com 1.10,2013-02-14 22:17:00,
2013-02-14 17:32:00,45.8,29.0,29.91,SSE,153,1.0,2.0,52,0.00,,,0.14,weatherlink.com 1.10,2013-02-14 22:32:00,
2013-02-14 17:47:00,43.8,29.0,29.91,SSE,152,0.0,2.0,57,0.00,,,0.14,weatherlink.com 1.10,2013-02-14 22:47:00,
2013-02-14 18:02:00,42.1,29.0,29.91,SE,141,2.0,2.0,61,0.00,,,0.14,weatherlink.com 1.10,2013-02-14 23:02:00,
2013-02-14 18:17:00,40.5,29.0,29.91,SE,135,0.0,1.0,65,0.00,,,0.14,weatherlink.com 1.10,2013-02-14 23:17:00,
2013-02-14 18:32:00,39.2,30.0,29.92,SE,135,0.0,1.0,69,0.00,,,0.14,weatherlink.com 1.10,2013-02-14 23:32:00,
2013-02-14 18:47:00,38.1,29.0,29.92,SE,135,0.0,0.0,71,0.00,,,0.14,weatherlink.com 1.10,2013-02-14 23:47:00,
2013-02-14 19:02:00,37.1,30.0,29.94,SW,235,1.0,2.0,74,0.00,,,0.14,weatherlink.com 1.10,2013-02-15 00:02:00,
2013-02-14 19:17:00,36.2,29.0,29.94,SW,235,0.0,0.0,76,0.00,,,0.14,weatherlink.com 1.10,2013-02-15 00:17:00,
2013-02-14 19:32:00,35.2,29.0,29.94,SW,235,0.0,0.0,77,0.00,,,0.14,weatherlink.com 1.10,2013-02-15 00:32:00,
2013-02-14 19:47:00,34.2,28.0,29.94,SW,235,0.0,0.0,79,0.00,,,0.14,weatherlink.com 1.10,2013-02-15 00:47:00,
2013-02-14 20:02:00,33.0,28.0,29.93,SW,235,0.0,0.0,82,0.00,,,0.14,weatherlink.com 1.10,2013-02-15 01:02:00,
2013-02-14 20:17:00,32.3,27.0,29.93,SW,235,0.0,0.0,82,0.00,,,0.14,weatherlink.com 1.10,2013-02-15 01:17:00,
2013-02-14 20:32:00,31.4,27.0,29.93,SW,235,0.0,0.0,85,0.00,,,0.14,weatherlink.com 1.10,2013-02-15 01:32:00,
2013-02-14 20:47:00,30.8,27.0,29.93,SW,234,0.0,0.0,86,0.00,,,0.14,weatherlink.com 1.10,2013-02-15 01:47:00,
2013-02-14 21:02:00,30.7,27.0,29.93,West,260,0.0,0.0,87,0.00,,,0.14,weatherlink.com 1.10,2013-02-15 02:02:00,
2013-02-14 21:17:00,30.5,27.0,29.94,West,260,0.0,0.0,87,0.00,,,0.14,weatherlink.com 1.10,2013-02-15 02:17:00,
2013-02-14 21:32:00,30.0,27.0,29.93,West,260,0.0,0.0,88,0.00,,,0.14,weatherlink.com 1.10,2013-02-15 02:32:00,
2013-02-14 21:47:00,29.7,27.0,29.93,West,260,0.0,0.0,89,0.00,,,0.14,weatherlink.com 1.10,2013-02-15 02:47:00,
2013-02-14 22:02:00,29.3,27.0,29.93,West,260,0.0,0.0,89,0.00,,,0.14,weatherlink.com 1.10,2013-02-15 03:02:00,
2013-02-14 22:17:00,28.9,26.0,29.93,West,260,0.0,0.0,90,0.00,,,0.14,weatherlink.com 1.10,2013-02-15 03:17:00,
2013-02-14 22:33:00,28.4,26.0,29.93,West,260,0.0,0.0,90,0.00,,,0.14,weatherlink.com 1.10,2013-02-15 03:33:00,
2013-02-14 22:48:00,28.1,26.0,29.93,West,260,0.0,0.0,91,0.00,,,0.14,weatherlink.com 1.10,2013-02-15 03:48:00,
2013-02-14 23:03:00,27.7,26.0,29.92,West,260,0.0,0.0,92,0.00,,,0.14,weatherlink.com 1.10,2013-02-15 04:03:00,
2013-02-14 23:18:00,27.6,26.0,29.93,West,281,0.0,1.0,92,0.00,,,0.14,weatherlink.com 1.10,2013-02-15 04:18:00,
2013-02-14 23:33:00,27.6,26.0,29.93,West,281,0.0,0.0,92,0.00,,,0.14,weatherlink.com 1.10,2013-02-15 04:33:00,
2013-02-14 23:48:00,27.4,25.0,29.93,West,281,0.0,0.0,92,0.00,,,0.14,weatherlink.com 1.10,2013-02-15 04:48:00,